Regional Weather Roundup
Issued by NWS Huntsville, AL

Home | Current Version | Previous Version | Text Only | Print | Product List | Glossary On
Versions: 1 2 3 4 5 6 7 8 9 10 11 12 13 14 15 16 17 18 19 20 21 22 23 24 25 26 27 28 29 30 31 32 33 34 35 36 37 38 39 40 41 42 43 44 45 46 47 48 49 50
562
ASUS44 KHUN 040610
RWRHUN

WEATHER ROUNDUP FOR THE TENNESSEE VALLEY
NATIONAL WEATHER SERVICE HUNTSVILLE AL
1200 AM CST SUN DEC 04 2016

ALZ001>004-040700-
NORTHWEST ALABAMA

CITY           SKY/WX    TMP DP  RH WIND       PRES   REMARKS
RUSSELLVILLE     N/A     43 N/A N/A MISG        N/A
SHOALS AIRPORT LGT RAIN  43  40  89 E9        30.16F
6HR MIN TEMP:  42; 6HR MAX TEMP:  44; 6HR PCP:  0.17;

SHOALS TVA RES   N/A     41 N/A N/A MISG        N/A
$$

ALZ005>007-016-040700-
NORTH CENTRAL ALABAMA

CITY           SKY/WX    TMP DP  RH WIND       PRES   REMARKS
CULLMAN AG STN   N/A     43 N/A N/A E5          N/A
DECATUR AP     RAIN      42  42 100 NE3       30.17F FOG
6HR MIN TEMP:  42; 6HR MAX TEMP:  44; 6HR PCP:  0.17;

HUNTSVILLE AP  RAIN      44  43  96 E8        30.16F FOG
6HR MIN TEMP:  44; 6HR MAX TEMP:  46; 6HR PCP:  0.15;

MERIDIANVILLE  RAIN      41  39  93 CALM      30.17F
REDSTONE ARSN  LGT RAIN  43  42  98 E5        30.16S FOG
VINEMONT AP    RAIN      42  40  95 E5        30.16S
$$

ALZ008>010-040700-
NORTHEAST ALABAMA

CITY           SKY/WX    TMP DP  RH WIND       PRES   REMARKS
ALBERTVILLE    DRIZZLE   41  41 100 E8        30.15S
FORT PAYNE     LGT RAIN  41  37  87 NE5       30.16F
SCOTTSBORO AP  LGT RAIN  41  41 100 NE7       30.19F
SCOTTSBORO HCN   N/A     43 N/A N/A MISG        N/A
VALLEY HEAD      N/A     41 N/A N/A MISG        N/A
$$

TNZ076-096-097-040700-
SOUTHEASTERN MIDDLE TENNESSEE

CITY           SKY/WX    TMP DP  RH WIND       PRES   REMARKS
TULLAHOMA      MOCLDY    37  37 100 E3        30.17F
WINCHESTER     MOCLDY    39  39 100 SE8       30.16F WCI  34
$$

...SURROUNDING SITES...

CITY           SKY/WX    TMP DP  RH WIND       PRES   REMARKS
ATLANTA        CLOUDY    47  44  90 E12       30.16F
ANNISTON       CLOUDY    46  43  89 NE6       30.16R
BIRMINGHAM     CLOUDY    45  42  89 NE6       30.14F
CHATTANOOGA    LGT RAIN  41  38  89 NE7       30.22F FOG
CORINTH        LGT RAIN  43  41  93 NE6       30.14S
DALTON         LGT RAIN  41  41 100 NW3       30.22S
GADSDEN        LGT RAIN  44  42  93 NE10      30.16F
GOLDEN TRNGL   CLOUDY    45  39  81 E7        30.04F
HALEYVILLE     LGT RAIN  42  41  96 E6        30.15F
JACKSON TN     RAIN      41  50 100 E8        30.16F
MEMPHIS        LGT RAIN  42  41  96 E13       30.11F
NASHVILLE      LGT RAIN  40  37  89 E6        30.20F
OXFORD MS      RAIN      39  39 100 E8        30.13R WCI  34
ROME           LGT RAIN  43  41  93 NE6       30.19F FOG
SAVANNAH       CLOUDY    41  39  93 NE6       30.14F FOG
TUPELO         LGT RAIN  43  41  93 NE8       30.10F
TUSCALOOSA     CLOUDY    47  43  86 NE8       30.10F
$$

...GULF COAST WEATHER...

CITY           SKY/WX    TMP DP  RH WIND       PRES   REMARKS
GULFPORT       CLOUDY    62  46  55 E20G31    29.98F
PASCAGOULA     CLOUDY    61  41  47 E12G18    29.99F
MOBILE         CLOUDY    59  38  45 SE14      30.01F
GULF SHORES    CLOUDY    62  50  64 E15       30.02F
PENSACOLA      CLOUDY    61  45  55 E13       30.02F
DESTIN         CLOUDY    62  39  42 E6        30.06F
PANAMA CITY    MOCLDY    58  44  59 E13       30.06F
APPALACHICOLA  MOCLDY    62  55  77 E12       30.08F
$$





USA.gov is the U.S. government's official web portal to all federal, state and local government web resources and services.